Orbital Elements at Epoch 2459200.5 (2020-Dec-17.0) TDB
Reference: JPL 27 (heliocentric ecliptic J2000)
Element | Value | Uncertainty (1-sigma) | Units |
e | .12316876785882 | 3.6073e-08 | |
a | 3.121489095310104 | 1.8444e-08 | au |
q | 2.737019129556016 | 1.1975e-07 | au |
i | 2.362182566186145 | 4.3608e-06 | deg |
node | 152.8577359460125 | 0.00010612 | deg |
peri | 118.4776119586727 | 0.00010805 | deg |
M | 355.8415755385768 | 2.0726e-05 | deg |
tp | 2459223.768451170714 (2021-Jan-09.26845117) | 0.00011599 | TDB |
period | 2014.378882955656 5.52 | 1.7854e-05 4.888e-08 | d yr |
n | .1787151379743316 | 1.584e-09 | deg/d |
Q | 3.505959061064193 | 2.0716e-08 | au |
|
| | Orbit Determination Parameters
Additional Information
|